Location: Newark
(48.8833°N, 0.9236°W)
Time: 01:07:21
(UTC+00:00)

OTV 5 (USA 277) - Visible Passes

Search period start: 22 October 2019 00:00
Search period end: 01 November 2019 00:00
Orbit: 310 x 324 km, 54.5° (Epoch: 17 October)

Date Brightness Start Highest point End Pass type
(mag) Time Alt. Az. Time Alt. Az. Time Alt. Az.
28 Oct ? 18:38:14 10° S 18:38:41 13° S 18:38:41 13° S visible
29 Oct ? 18:52:08 10° SW 18:53:10 20° SSW 18:53:10 20° SSW visible
30 Oct ? 17:33:46 10° S 17:35:20 14° SE 17:36:39 11° ESE visible
30 Oct ? 19:06:34 10° WSW 19:07:33 20° WSW 19:07:33 20° WSW visible
31 Oct ? 17:47:12 10° SSW 17:49:40 30° SE 17:50:56 20° E visible
31 Oct ? 19:21:17 10° W 19:21:50 14° W 19:21:50 14° W visible
